Temperature
17 16 15 15 14 14 13 13 12 12 12 12 11 11 11 11 11 11 10 10 10 10 10 10 11 11 11 11 11 11 11 11 11 11 11 11 12 12 12 13 13 13 14
18 17 16 15 14 14 13 12 12 12 12 11 11 11 11 11 11 10 10 10 10 10 10 10 10 10 11 11 11 11 11 11 11 11 11 11 11 11 12 12 12 12 13
18 17 16 15 14 14 13 12 12 12 12 11 11 11 11 10 10 10 10 10 10 10 10 10 10 11 11 11 11 11 10 10 11 11 11 11 11 10 11 11 11 11 12
18 18 17 15 14 14 13 12 12 12 11 11 11 11 10 10 10 10 10 10 10 11 11 11 11 11 11 11 11 11 11 11 11 12 11 11 10 10 10 10 10 11 11
18 17 17 16 15 14 13 12 12 11 11 11 11 10 10 10 10 10 10 11 11 11 11 11 11 11 12 12 11 11 11 11 12 11 11 11 10 10 10 10 10 10 10
18 17 17 16 14 14 13 12 11 11 11 11 11 10 10 10 10 10 11 11 11 11 11 11 12 12 12 12 12 12 12 11 12 11 11 11 11 10 10 10 10 10 10
18 17 16 15 14 13 13 12 11 11 11 10 10 10 10 10 10 11 11 11 11 11 11 12 12 12 12 12 12 12 11 11 12 11 11 11 11 10 10 10 10 10 10
17 17 16 15 14 13 12 12 11 11 11 10 10 10 10 10 10 10 11 11 11 11 11 11 11 11 12 11 11 11 11 11 11 11 11 11 11 11 10 11 11 11 11
17 16 16 15 14 13 12 12 11 11 10 10 10 10 10 10 10 10 10 10 10 11 11 11 11 11 11 11 11 11 11 11 11 11 11 11 11 11 11 11 11 11 11
16 16 15 14 14 13 12 12 11 11 10 10 10 10 10 10 10 10 10 10 10 10 10 10 10 11 11 11 11 11 11 11 11 11 11 11 11 11 10 10 10 10 10
15 15 14 14 13 13 12 11 11 11 10 10 10 10 10 10 10 10 9 9 9 10 10 10 10 10 10 10 10 10 10 10 10 10 10 10 10 10 10 10 10 10 10
15 14 14 14 13 13 12 11 11 11 10 10 10 10 9 9 9 9 9 9 9 9 9 9 9 9 9 10 10 10 10 10 10 10 10 10 10 10 9 9 9 9 9
15 14 14 13 13 12 12 11 11 10 10 10 10 9 9 9 9 9 9 9 9 9 9 9 9 9 9 9 9 9 9 9 9 9 9 9 9 9 9 9 9 9 9
15 14 14 13 13 12 12 11 11 10 10 10 10 9 9 9 9 9 9 8 8 8 8 8 8 8 8 8 8 8 8 9 9 9 9 9 9 9 9 9 8 8 8
15 14 14 13 12 12 11 11 11 10 10 10 10 9 9 9 9 9 8 8 8 8 8 8 8 8 8 8 8 8 8 8 8 8 8 8 8 8 8 8 8 8 8
15 14 13 13 12 12 11 11 11 10 10 10 10 9 9 9 9 9 8 8 8 8 8 8 7 7 7 7 7 7 7 7 7 7 7 8 8 8 8 8 8 8 7
15 14 13 13 12 12 11 11 11 10 10 10 9 9 9 9 9 8 8 8 8 8 7 7 7 7 7 7 7 7 7 7 7 7 7 7 8 8 8 8 7 7 7
14 14 13 13 12 12 11 11 10 10 10 10 9 9 9 9 8 8 8 8 8 7 7 7 7 7 7 7 7 7 6 6 7 7 7 7 8 8 8 8 7 7 7
14 14 13 13 12 12 11 11 10 10 10 10 9 9 9 9 8 8 8 8 8 8 7 7 7 7 7 7 6 6 6 7 7 7 7 8 8 8 8 8 8 7 7
14 13 13 12 12 11 11 11 10 10 10 10 9 9 9 9 9 8 8 8 8 7 7 7 7 6 6 6 6 6 6 6 7 7 7 7 7 7 7 7 7 7 7
13 13 13 12 12 11 11 11 11 10 10 10 10 9 9 9 9 8 8 8 8 7 7 7 6 6 6 6 5 5 6 6 7 7 6 6 7 6 6 6 6 6 6
13 13 13 12 12 12 11 11 10 10 10 10 9 9 9 9 8 8 8 8 7 7 7 6 6 6 6 5 4 4 4 4 5 5 5 5 5 5 5 5 5 5 5
13 13 13 12 12 12 11 11 10 10 10 10 10 9 9 8 8 8 7 7 7 6 6 6 5 5 5 5 4 3 3 3 3 3 3 4 4 4 4 4 4 4 4
13 12 12 12 12 11 11 11 10 10 10 9 9 9 8 8 7 7 7 6 6 6 5 5 5 4 4 4 4 4 3 2 2 1 2 2 2 3 3 3 3 3 3
12 12 12 12 11 11 11 10 10 10 9 9 8 8 8 7 7 7 6 6 6 5 5 4 4 4 3 3 3 3 2 2 2 1 1 1 2 2 2 2 2 2 3
12 12 11 11 11 11 10 10 10 9 9 8 8 7 7 7 7 6 6 5 5 4 4 4 4 3 3 3 2 2 2 1 1 1 0 0 0 1 1 1 1 2 2
Wind_Speed
7 16 19 19 17 16 14 14 13 12 12 12 12 12 12 13 13 12 12 12 12 13 13 13 13 14 14 15 14 14 15 15 16 16 16 16 15 15 15 15 15 15 16
11 21 21 20 18 16 15 14 13 13 12 12 12 12 12 12 12 12 11 11 11 12 12 12 13 13 13 13 13 13 13 14 14 15 16 15 14 15 15 15 14 13 14
15 22 22 21 19 17 16 15 14 13 13 12 12 11 11 11 11 11 11 11 11 10 11 11 11 11 11 11 11 11 12 12 13 14 14 15 13 13 14 14 14 14 14
20 21 21 22 20 18 16 15 14 13 12 11 11 11 10 10 10 10 10 9 9 9 9 10 10 10 10 10 9 10 11 11 12 13 14 14 12 11 12 13 13 13 13
17 20 22 23 21 19 17 16 15 14 12 11 10 10 9 9 9 9 9 8 8 8 8 8 8 8 8 8 8 8 10 11 12 13 12 12 11 10 10 10 11 11 11
14 20 23 23 21 19 18 16 15 14 12 11 10 10 9 9 9 8 7 7 7 6 6 6 6 6 7 6 6 7 8 10 11 11 10 10 10 8 8 8 8 8 8
12 19 23 23 21 20 18 17 15 14 13 11 10 10 10 9 8 7 6 5 5 5 4 4 4 5 4 4 5 5 6 7 9 8 8 7 7 6 6 6 6 6 6
14 18 21 23 22 20 18 17 16 15 13 12 11 10 9 8 8 7 5 5 4 3 2 2 2 2 3 3 3 4 5 6 6 6 5 5 5 4 4 4 4 4 4
15 16 17 20 21 20 19 18 17 15 13 12 11 10 9 8 8 7 6 5 3 2 1 0 1 2 2 3 3 4 4 5 4 5 4 4 5 5 5 4 4 5 4
10 12 14 16 18 18 18 18 17 15 14 13 11 10 9 9 8 8 7 6 5 4 3 3 3 4 4 4 5 5 6 6 5 6 6 7 8 8 8 8 7 7 7
9 8 11 13 15 16 16 16 17 15 14 13 12 11 10 9 9 8 8 8 7 6 6 6 6 6 7 7 7 8 8 7 7 8 10 10 11 12 12 12 11 11 11
10 10 8 11 13 14 13 14 14 14 13 12 12 12 11 10 10 9 10 10 9 9 8 8 8 9 8 8 9 10 10 10 10 11 12 12 14 15 15 15 15 14 14
10 10 9 10 13 13 11 11 11 11 11 11 12 12 11 10 9 9 10 10 10 10 9 10 10 9 9 10 11 12 13 13 13 15 15 15 16 17 18 18 18 17 18
8 9 9 10 11 12 12 10 10 9 9 9 11 12 10 8 7 8 9 10 10 10 9 10 10 12 12 13 13 14 14 15 16 17 18 18 19 20 20 21 21 20 20
7 8 9 9 9 10 10 9 9 9 9 10 10 11 11 8 7 8 8 10 11 11 10 10 10 11 11 12 13 13 14 16 17 18 18 20 21 22 23 23 23 23 23
5 7 7 8 9 9 7 6 7 7 7 7 8 9 10 10 8 7 7 8 9 11 12 12 11 10 10 10 10 12 14 15 16 18 19 21 22 24 25 26 26 26 25
5 6 7 8 8 8 7 7 7 7 6 5 6 7 8 8 8 7 6 6 9 10 10 9 9 9 7 7 7 10 12 14 15 17 19 19 21 23 26 27 28 28 28
6 7 6 7 7 7 6 6 6 5 5 4 4 5 6 6 6 6 5 5 8 8 7 5 4 4 6 6 6 7 8 10 13 16 17 19 19 20 23 27 28 29 29
6 7 7 7 7 6 6 6 5 4 3 2 2 2 3 4 5 5 5 6 7 6 5 4 4 4 5 6 7 7 7 7 10 14 14 17 19 20 21 24 27 28 29
6 7 7 7 6 6 5 4 4 3 3 2 1 1 2 3 4 4 5 6 6 3 4 4 5 4 5 6 8 8 7 8 8 9 12 15 17 19 19 20 21 23 26
6 7 6 6 5 5 3 3 2 1 1 1 2 3 3 5 5 5 5 5 4 3 5 5 4 5 4 3 4 6 7 8 9 8 7 7 10 15 16 17 17 18 19
5 5 6 6 5 5 4 3 2 2 1 1 3 4 5 6 6 5 5 4 4 3 5 5 4 4 4 2 3 5 5 5 4 6 6 7 8 10 10 14 14 15 17
5 4 5 5 5 5 4 3 3 3 3 2 2 3 5 7 7 7 6 5 4 3 5 6 5 5 5 4 3 4 5 5 5 5 6 7 7 6 6 9 12 15 17
4 4 5 5 5 4 5 4 3 2 0 2 2 3 5 7 7 8 7 6 5 3 5 6 5 4 5 5 4 5 7 6 6 6 4 5 7 8 8 8 9 14 17
5 5 5 5 4 4 4 5 4 2 1 1 2 3 4 5 7 8 8 6 5 4 5 6 6 6 5 6 6 5 6 6 7 9 11 7 6 6 8 8 8 11 17
5 4 4 5 3 3 4 4 3 2 1 2 3 3 4 4 4 7 8 7 6 5 6 7 7 8 7 8 7 6 6 6 6 8 11 11 10 7 8 8 8 9 15
Wind_Direction
188 178 171 160 156 153 148 140 132 127 122 115 110 106 100 95 92 87 83 80 75 69 66 67 67 65 64 64 63 61 58 56 54 52 51 56 61 62 60 57 53 49 52
164 171 168 162 159 156 152 144 136 130 128 120 114 110 105 100 94 89 85 81 76 70 66 68 68 67 66 65 62 60 58 56 56 52 45 44 55 60 59 58 58 57 55
154 167 166 164 161 158 154 148 143 137 131 123 117 113 110 105 99 93 87 83 79 74 69 68 68 67 65 64 63 59 54 52 56 52 42 31 40 58 58 57 56 56 56
157 164 164 164 161 159 156 153 149 142 136 131 125 119 115 111 104 96 90 85 81 78 74 72 70 69 67 65 63 58 51 47 53 49 41 32 32 54 56 54 53 53 53
158 163 165 164 163 161 159 156 151 146 142 139 135 130 125 118 109 101 95 89 85 81 77 74 72 71 68 65 61 55 49 51 53 51 44 33 26 48 53 51 49 49 49
158 162 166 166 165 163 162 159 156 152 150 147 144 141 135 126 116 108 103 99 93 87 81 76 71 68 66 62 56 50 46 49 49 50 43 31 22 40 47 47 45 44 42
159 164 168 167 167 166 165 162 160 158 156 157 154 150 144 138 131 125 121 116 108 98 89 79 69 60 57 52 44 38 34 39 43 40 34 22 12 24 33 34 31 31 31
160 166 169 170 169 169 168 166 165 164 164 164 163 160 157 154 150 146 143 139 134 122 102 83 61 45 31 23 17 13 10 14 24 22 10 1 344 347 0 4 1 3 7
159 163 168 170 170 171 171 170 170 170 171 172 173 170 170 169 170 166 167 169 170 176 187 232 318 322 327 330 331 332 338 345 351 342 326 313 307 304 308 309 313 314 318
151 160 164 166 168 171 173 173 174 175 176 177 179 178 179 181 184 183 187 194 200 213 232 253 272 282 288 296 303 304 307 310 307 307 300 289 286 285 286 285 285 287 287
153 161 162 162 164 168 172 175 177 180 181 182 181 182 184 187 192 195 198 209 217 226 241 258 271 278 281 283 287 292 293 288 284 286 287 283 281 281 282 281 279 278 277
168 173 168 164 164 167 172 176 178 181 184 184 183 185 186 192 200 204 210 219 229 236 247 259 266 272 276 273 276 282 280 275 272 272 276 278 280 282 282 281 279 277 276
170 172 176 170 166 166 167 170 175 178 181 185 188 191 192 196 206 212 217 225 234 242 250 259 269 270 265 262 264 267 267 264 261 264 268 273 277 281 283 281 278 276 274
160 172 174 170 166 167 165 169 173 175 180 187 194 196 193 194 204 210 214 222 228 237 244 252 257 261 262 261 260 260 260 255 255 258 263 267 272 278 281 281 279 277 274
156 168 169 164 163 163 161 166 172 177 183 191 194 197 196 197 205 210 217 222 229 236 240 246 251 255 258 260 259 255 254 253 253 255 258 263 269 275 278 279 279 277 275
149 157 159 159 158 154 155 159 165 171 179 185 196 203 202 204 208 212 221 229 237 241 242 244 247 249 253 256 259 257 255 256 257 257 259 262 268 274 277 278 278 277 276
141 137 142 150 144 143 145 147 151 159 166 178 198 209 209 211 214 219 223 232 243 249 249 250 255 255 258 259 259 260 260 260 260 261 263 263 264 270 274 276 277 277 276
120 119 128 140 136 136 136 136 138 152 162 180 200 215 223 226 227 225 230 241 252 252 247 245 249 258 261 262 265 267 265 265 264 265 266 265 263 265 269 273 276 276 277
111 113 113 120 129 131 125 125 122 122 130 160 187 220 243 253 255 247 250 259 266 261 255 257 257 252 267 270 270 269 262 259 261 266 264 264 263 263 263 270 274 275 276
96 100 103 104 110 112 102 91 79 72 65 64 57 328 308 300 296 284 274 276 278 273 273 269 269 267 263 271 283 281 271 263 259 257 262 267 268 267 267 267 269 272 275
88 93 96 103 106 109 104 108 104 88 34 15 348 325 313 308 306 296 287 289 287 272 270 271 272 279 278 276 294 294 279 264 260 258 258 264 269 272 272 270 269 268 272
107 103 105 110 112 112 115 119 123 120 85 308 326 332 323 317 311 301 289 284 284 282 288 284 273 280 281 267 266 303 306 308 291 267 267 264 265 271 274 277 276 272 270
123 130 125 120 114 110 109 98 73 55 30 6 345 325 320 318 312 304 294 285 281 270 275 278 272 263 276 279 221 238 283 285 306 268 253 254 262 269 273 279 279 277 276
152 139 127 123 116 113 111 111 113 120 171 265 283 300 315 323 317 309 299 291 283 275 275 276 270 256 257 274 270 232 238 258 281 297 270 271 272 268 266 272 274 274 275
151 140 132 121 113 111 108 118 117 121 203 284 314 322 322 322 322 316 307 298 287 280 275 277 279 268 253 256 260 260 259 258 245 267 286 278 268 256 259 261 263 267 269
147 140 136 128 123 119 115 118 130 148 225 307 315 317 316 313 313 315 311 299 290 283 277 276 272 270 264 260 258 253 254 257 260 261 279 285 281 270 258 255 256 260 264
Height
1553 1554 1555 1556 1557 1558 1559 1559 1560 1560 1560 1560 1560 1560 1559 1559 1559 1558 1558 1558 1557 1557 1557 1556 1556 1555 1555 1554 1554 1553 1553 1552 1552 1552 1551 1552 1552 1551 1551 1551 1551 1551 1551
1553 1553 1555 1556 1557 1558 1559 1559 1560 1560 1560 1561 1561 1561 1560 1560 1560 1559 1559 1558 1558 1558 1557 1557 1556 1556 1555 1555 1554 1554 1554 1553 1553 1552 1552 1552 1552 1552 1552 1551 1551 1551 1551
1552 1553 1554 1555 1557 1558 1559 1559 1560 1560 1561 1561 1561 1561 1561 1561 1560 1560 1560 1559 1558 1558 1558 1557 1557 1556 1556 1555 1555 1555 1554 1554 1553 1553 1553 1553 1553 1553 1553 1552 1552 1551 1551
1552 1552 1553 1555 1556 1558 1559 1559 1560 1561 1561 1562 1562 1562 1562 1561 1561 1561 1560 1560 1559 1559 1558 1558 1557 1557 1556 1556 1556 1555 1555 1554 1554 1554 1554 1554 1554 1554 1553 1553 1552 1552 1551
1552 1552 1553 1555 1556 1557 1558 1560 1560 1561 1561 1562 1562 1562 1562 1562 1562 1561 1561 1560 1560 1559 1559 1558 1558 1558 1557 1557 1556 1556 1556 1555 1555 1555 1555 1555 1554 1554 1554 1553 1553 1552 1552
1552 1552 1553 1555 1556 1557 1558 1559 1560 1561 1562 1562 1563 1563 1563 1563 1562 1562 1561 1561 1561 1560 1560 1559 1559 1558 1558 1558 1557 1557 1557 1556 1556 1556 1556 1556 1555 1555 1554 1554 1553 1553 1552
1551 1552 1553 1554 1556 1557 1558 1559 1560 1561 1562 1562 1563 1563 1563 1563 1563 1562 1562 1562 1561 1561 1560 1560 1560 1559 1559 1558 1558 1558 1558 1557 1557 1557 1556 1556 1556 1555 1555 1554 1554 1553 1552
1551 1552 1553 1554 1555 1557 1558 1559 1560 1561 1562 1563 1563 1564 1564 1564 1563 1563 1563 1562 1562 1561 1561 1561 1560 1560 1560 1559 1559 1558 1558 1558 1557 1557 1557 1556 1556 1555 1555 1554 1554 1553 1552
1551 1552 1553 1554 1555 1557 1558 1559 1560 1561 1562 1563 1563 1564 1564 1564 1564 1563 1563 1563 1562 1562 1562 1561 1561 1560 1560 1560 1559 1559 1558 1558 1557 1557 1557 1556 1556 1555 1554 1554 1553 1553 1552
1550 1551 1552 1553 1555 1556 1558 1559 1560 1561 1562 1563 1563 1564 1564 1564 1564 1564 1563 1563 1563 1562 1562 1561 1561 1560 1560 1560 1559 1559 1558 1558 1557 1557 1556 1556 1555 1554 1554 1553 1552 1552 1551
1549 1550 1552 1553 1554 1556 1557 1559 1560 1561 1562 1563 1563 1563 1564 1564 1564 1563 1563 1563 1563 1562 1562 1561 1561 1560 1560 1559 1559 1558 1558 1557 1556 1556 1555 1555 1554 1553 1553 1552 1551 1551 1550
1547 1549 1551 1552 1554 1555 1557 1558 1559 1561 1561 1562 1563 1563 1563 1563 1563 1563 1563 1562 1562 1562 1561 1561 1560 1559 1559 1558 1558 1557 1556 1556 1555 1554 1554 1553 1552 1551 1551 1550 1550 1549 1548
1546 1548 1549 1551 1553 1555 1556 1557 1559 1560 1561 1561 1562 1562 1562 1562 1562 1562 1562 1561 1561 1561 1560 1559 1559 1558 1557 1556 1556 1555 1554 1553 1553 1552 1551 1551 1550 1549 1548 1548 1547 1546 1546
1545 1546 1548 1550 1552 1554 1555 1557 1558 1559 1560 1560 1561 1561 1561 1561 1561 1561 1560 1560 1559 1559 1558 1558 1557 1556 1555 1554 1553 1552 1551 1550 1549 1549 1548 1547 1546 1546 1545 1544 1544 1543 1542
1543 1545 1547 1549 1551 1553 1554 1556 1557 1558 1559 1559 1560 1560 1560 1560 1559 1559 1559 1558 1558 1557 1556 1555 1554 1553 1552 1551 1550 1549 1547 1547 1545 1545 1544 1543 1542 1541 1540 1540 1539 1538 1538
1542 1544 1546 1548 1550 1552 1553 1555 1556 1557 1558 1558 1558 1558 1558 1558 1558 1557 1557 1556 1555 1555 1553 1552 1551 1549 1548 1547 1546 1545 1543 1542 1541 1540 1539 1538 1537 1536 1535 1534 1534 1533 1532
1541 1543 1545 1547 1549 1551 1553 1554 1555 1556 1557 1557 1557 1557 1557 1556 1556 1555 1555 1554 1553 1552 1550 1549 1547 1546 1544 1543 1541 1540 1538 1537 1535 1534 1533 1532 1531 1530 1529 1528 1527 1526 1526
1541 1542 1544 1546 1549 1550 1552 1553 1554 1555 1555 1555 1555 1555 1555 1555 1554 1553 1552 1551 1550 1549 1547 1545 1544 1542 1540 1538 1536 1535 1533 1531 1530 1528 1527 1525 1524 1523 1522 1521 1520 1519 1519
1541 1542 1544 1546 1548 1550 1551 1552 1553 1553 1554 1554 1554 1553 1553 1552 1552 1550 1549 1548 1547 1545 1543 1542 1540 1538 1535 1533 1531 1528 1527 1525 1523 1522 1520 1519 1518 1516 1515 1514 1513 1512 1511
1541 1542 1544 1545 1547 1549 1550 1551 1552 1552 1552 1552 1552 1551 1551 1550 1549 1547 1546 1544 1543 1541 1539 1537 1535 1533 1531 1528 1525 1522 1520 1518 1516 1515 1514 1513 1511 1510 1509 1507 1506 1505 1505
1541 1542 1543 1544 1546 1547 1548 1549 1550 1550 1550 1550 1550 1549 1548 1547 1546 1544 1542 1541 1539 1537 1535 1533 1530 1528 1526 1524 1519 1514 1512 1510 1508 1508 1507 1506 1505 1504 1503 1502 1500 1499 1498
1541 1542 1543 1544 1545 1546 1547 1548 1548 1548 1548 1548 1548 1547 1546 1544 1542 1541 1539 1537 1535 1532 1530 1529 1526 1523 1521 1520 1516 1510 1504 1501 1500 1500 1499 1499 1498 1498 1497 1495 1494 1493 1491
1540 1541 1542 1543 1544 1545 1546 1546 1547 1547 1546 1546 1545 1544 1543 1541 1539 1537 1535 1533 1531 1528 1526 1524 1522 1519 1516 1514 1513 1511 1505 1497 1494 1490 1491 1491 1490 1490 1489 1488 1487 1485 1484
1539 1540 1541 1542 1543 1544 1544 1545 1545 1544 1544 1543 1542 1541 1539 1538 1536 1534 1531 1529 1526 1524 1522 1519 1517 1514 1511 1508 1507 1505 1503 1498 1493 1483 1482 1483 1483 1482 1481 1480 1478 1477 1475
1538 1539 1540 1541 1542 1542 1543 1543 1543 1542 1542 1541 1539 1538 1536 1534 1532 1530 1527 1524 1522 1519 1517 1514 1512 1509 1506 1503 1500 1498 1495 1492 1489 1483 1474 1472 1472 1472 1471 1470 1469 1467 1466
1536 1538 1539 1540 1541 1541 1541 1541 1541 1540 1539 1538 1536 1534 1532 1530 1528 1525 1523 1520 1517 1514 1511 1509 1506 1503 1500 1497 1494 1491 1489 1485 1482 1478 1470 1464 1462 1461 1461 1460 1459 1458 1456